Location: ??????
(55.7522°N, 37.6156°E)
Time: 16:50:42
(UTC+00:00)

RESURS DK-1 - Pass Details

Date: 14 June 2025
Orbit: 531 x 535 km, 69.9° (Epoch: 12 July)

Event Time Altitude Azimuth Distance (km) Brightness Sun altitude
Rises 20:05:13 0° 220° (SW) 2,679 5.5 -8.9°
Reaches altitude 10° 20:07:24 10° 222° (SW) 1,792 4.7 -9.0°
Maximum altitude 20:11:23 75° 308° (NW) 562 2.5 -9.2°
Drops below altitude 10° 20:15:25 10° 34° (NE) 1,803 5.5 -9.4°
Sets 20:17:36 0° 37° (NE) 2,697 6.4 -9.5°
